Orbital Elements at Epoch 2459200.5 (2020-Dec-17.0) TDB
Reference: JPL 37 (heliocentric ecliptic J2000)
Element | Value | Uncertainty (1-sigma) | Units |
e | .1511597059316878 | 3.0581e-08 | |
a | 3.202875694067321 | 1.9733e-08 | au |
q | 2.718729946016354 | 9.4441e-08 | au |
i | 22.75059483490829 | 3.7717e-06 | deg |
node | 186.7102061521389 | 8.9939e-06 | deg |
peri | 140.3197551937723 | 1.5678e-05 | deg |
M | 102.9447166681769 | 1.2493e-05 | deg |
tp | 2458601.798819721394 (2019-Apr-28.29881972) | 7.3015e-05 | TDB |
period | 2093.671553781888 5.73 | 1.9349e-05 5.297e-08 | d yr |
n | .1719467408102845 | 1.5891e-09 | deg/d |
Q | 3.687021442118287 | 2.2716e-08 | au |
|
| | Orbit Determination Parameters
Additional Information
|